"Pseudo-MPEC" for N00ki61

Created 2022 Aug 18 11:22:13 UT using Find_Orb

Click here for an explanation of pseudo-MPECs

 
 Astrometry: 
     N00ki61* S2022 08 10v[/I6S8RA,/`JMN$36[S/bo*;2CFCP[Syq`lI\x3BH`JLM`aZ:JBC51
     N00ki61  s2022 08 10dT7vxkBuBWNANi3xK2eG4KK;R2V2'.j5Egg6ccXAkToZgG_S2,B7C51
     N00ki61  S2022 08 10X]iD9UJtc;0.\wyy`1@,ejAstrometryfSkL`$2(oD?_hYn9S2.=C51
     N00ki61  s2022 08 10tD;sCU+dap.(#y.#@Fsef2SyZF,l.JgRe:vty:\JHM!LEYll,12rC51
     N00ki61  S2022 08 10?1Reredacted;qyNA@`ZV[Zpq*r51Na1--#9?i1^Tc#K+m\2-=BhC51
     N00ki61  s2022 08 10Qm95?Nmi1wh9pWJ.1he]^q*A]78%Zirs$8HX_7j`hXy^j$l!F28*C51
     N00ki61  S2022 08 11)B%f4=En,rgddiCI[g/IEcb5A.kA@)%#+C:Hib/aOs%spNT]8W]!C51
     N00ki61  s2022 08 11srv\==!BZ'M#uPF]_afXf_Oomf-KIbxv^Z9U7:wqu%tpUA-n(tLIC51
     N00ki61  S2022 08 113U'BK,Eg^A%?[ZVO1'K6!uEv]9Y1@(xOYK%eql$lqCM+SWZ\-51,C51
     N00ki61  s2022 08 11fnEYt'XI[7O`WF,[8#X@.1Qclick$E31ZxFmE8L^;avjGSjSh]0FC51
     N00ki61 1C2022 08 15Wr1.wVu.6s7@x\Gjc+`J[*Lhu%V2jVibgQ_wLH4y(%t[aA%$eObpZ84
     N00ki61 1C2022 08 15!*kZaW$qFg9Q6W($Ve)PFkKKoR7xnaSx,h9cl1cYJ:::qB?M-HXSZ84
     N00ki61 1C2022 08 159)Yc5J;)1o\=]uO`i/d)#%TED'SF9`:ws#fCJTg,qJ[Qv@c`#f?WZ84
     N00ki61 KC2022 08 17e=9rd,3$),[JPSt^AVk;aE7(bR_(K=ni0@-S1`FJjyDN@$^2sF11H21
     N00ki61 KC2022 08 17(t=gVh^JWnkexO?^uiNugWoE;[am)iA1wioG?)EHH*Dk2s2ihW_JH21
     N00ki61 KC2022 08 17Oq3D83UiJk#B8vK^DMBBr.o*R^a7bk73$[%7jn:;:q]Rmcjkjf4cH21
     N00ki61 KC2022 08 17u)mMA/]/p$Euo5D/*^ZBj'_5sO!-lPj`#2Iuo#+@[*oP?9:JQtFBH21
     N00ki61 KC2022 08 17+WOZ2\'cA@8jbm!((+wX$kr(BGN#YuRnbhuKnka`ahereI-b+5G\H21
     N00ki61 KC2022 08 18mL'@.Jg]hjpvdZd9+X/Pso8BT'7Vd_\E%joFM8jD0fbjPVObe%\[H21
     N00ki61 KC2022 08 18qX7:O\Xhr#mbMmje]hOI*?S`HoLM+ayx%X';6o3mO@/s+forla4oH21
     N00ki61 KC2022 08 18l-HRUX]#?\A;yEVioC]1L#AFcg-w7S+9``1C5^YVVtV!*EJM\\T`H21
     N00ki61 KC2022 08 18WIxa5o+OUF`sCO1#,gwC(;m/xO=8`=a_Y;NNGW]Gr0jGBG-/EI,'H21
     N00ki61 KC2022 08 18ej=).UD%p]811@2C#explanationY;4$0KJsJM+lv/c^-c4jVVv2H21

Station data:
(C51) WISE. Measurers A. Mainzer, E. Wright, J. Bauer, T. Grav, J. Dailey, J.
   Masiero, R. Cutri, R. McMillan, R. Walker.
(H21) Astronomical Research Observatory, Westfield  (N39.483054 W87.968270)
   US/Illinois.  Observer R. Holmes. Measurers S. Foglia, L. Buzzi, T.
   Linder, R. Holmes. 0.76-m f/3.0 astrograph + CCD0.81-m f/4.0 astrograph +
   CCD0.61-m f/4.5 astrograph + CCD0.40-m f/5.32 astrograph + CCD.
(Z84) Calar Alto-Schmidt  (N37.224046 W2.548210)  Spain.  Observer E. Schwab.
   Measurers E. Schwab, D. Koschny, M. Micheli. 0.8-m f/3 Schmidt + CCD.

Orbital elements:  N00ki61
   Perihelion 2022 Sep 5.96443 +/- 0.0325 TT = 23:08:46 (JD 2459828.46443)
Epoch 2022 Aug 18.0 TT = JDT 2459809.5   Earth MOID: 0.0337   Ju: 0.5371
M 356.28087987 +/- 0.12             (J2000 ecliptic)          AutoNEOCP
n   0.19611031 +/- 0.00651          Peri.  180.62541 +/- 0.038
a   2.93406067 +/- 0.065            Node   167.04578 +/- 0.038
e   0.6682688 +/- 0.00744           Incl.   14.41145 +/- 0.09
P   5.03                   H 23.1   G  0.15   U  9.4
q 0.97331936 +/- 0.000273    Q 4.89480197 +/- 0.13
From 18 observations 2022 Aug. 10-18; mean residual 0".47
Residuals in arcseconds: 
220810 C51  1.2-  .92-    220815 Z84  .42+  .40+    220817 H21  .66-  .18-    
220810 C51  .14+  .45-    220815 Z84  .28+  .21+    220818 H21  .24+  .29+    
220810 C51  .38+  1.2+    220817 H21  .01-  .64-    220818 H21  .03-  .25+    
220811 C51  .05-  .09-    220817 H21  .20-  .72-    220818 H21  .02-  .33+    
220811 C51  .44-  .42-    220817 H21  .05-  .70-    220818 H21  .10-  .25+    
220815 Z84  .29+  .51+    220817 H21  .43-  .30-    220818 H21  .04-  .27-    

Ephemerides (geocentric):
Date (UTC) HH   RA             Dec           delta  r     elong  mag " sig PA
---- --------  ------------   ------------  ------ ------ -----  --- --------
2022 08 18 11  16 43 51.888   +61 27 02.02  .10081 1.0081  84.8 21.3 .367   6
2022 08 18 12  16 43 28.274   +61 33 03.31  .10058 1.0080  84.7 21.3 .378   7
2022 08 18 13  16 43 04.393   +61 39 06.03  .10034 1.0078  84.6 21.3 .390   8
2022 08 18 14  16 42 40.243   +61 45 10.16  .10011 1.0077  84.5 21.3 .402  10
2022 08 18 15  16 42 15.817   +61 51 15.73  .09988 1.0075  84.5 21.3 .415  11
2022 08 18 16  16 41 51.111   +61 57 22.72  .09965 1.0074  84.4 21.3 .428  12
2022 08 18 17  16 41 26.121   +62 03 31.15  .09942 1.0072  84.3 21.3 .442  13
2022 08 18 18  16 41 00.842   +62 09 41.01  .09918 1.0071  84.2 21.3 .456  14
2022 08 18 19  16 40 35.268   +62 15 52.31  .09895 1.0069  84.1 21.3 .470  15
2022 08 18 20  16 40 09.396   +62 22 05.06  .09872 1.0068  84.1 21.2 .485  16
2022 08 18 21  16 39 43.219   +62 28 19.24  .09849 1.0066  84.0 21.2 .500  17
2022 08 18 22  16 39 16.732   +62 34 34.86  .09826 1.0065  83.9 21.2 .516  18
2022 08 18 23  16 38 49.931   +62 40 51.94  .09803 1.0063  83.8 21.2 .532  18
2022 08 19 00  16 38 22.809   +62 47 10.45  .09780 1.0062  83.7 21.2 .548  19
2022 08 19 01  16 37 55.361   +62 53 30.42  .09757 1.0060  83.6 21.2 .565  20
2022 08 19 02  16 37 27.582   +62 59 51.84  .09734 1.0059  83.5 21.2 .582  20
2022 08 19 03  16 36 59.465   +63 06 14.70  .09711 1.0057  83.5 21.2 .599  21
2022 08 19 04  16 36 31.004   +63 12 39.02  .09689 1.0056  83.4 21.2 .617  21
2022 08 19 05  16 36 02.194   +63 19 04.78  .09666 1.0054  83.3 21.2 .636  22
2022 08 19 06  16 35 33.028   +63 25 32.00  .09643 1.0053  83.2 21.2 .654  22
2022 08 19 07  16 35 03.500   +63 32 00.67  .09620 1.0051  83.1 21.2 .673  23
2022 08 19 08  16 34 33.603   +63 38 30.79  .09598 1.0050  83.0 21.2 .692  23
2022 08 19 09  16 34 03.330   +63 45 02.36  .09575 1.0048  82.9 21.2 .712  23
2022 08 19 10  16 33 32.675   +63 51 35.39  .09553 1.0047  82.9 21.2 .732  24
2022 08 19 11  16 33 01.631   +63 58 09.86  .09530 1.0045  82.8 21.2 .752  24
2022 08 19 12  16 32 30.190   +64 04 45.78  .09508 1.0044  82.7 21.2 .773  24
2022 08 19 13  16 31 58.346   +64 11 23.14  .09485 1.0043  82.6 21.2 .794  24
2022 08 19 14  16 31 26.090   +64 18 01.95  .09463 1.0041  82.5 21.2 .815  25
2022 08 19 15  16 30 53.415   +64 24 42.20  .09440 1.0040  82.4 21.2 .837  25
2022 08 19 16  16 30 20.313   +64 31 23.89  .09418 1.0038  82.3 21.2 .859  25
2022 08 19 17  16 29 46.776   +64 38 07.02  .09396 1.0037  82.2 21.2 .882  25
2022 08 19 18  16 29 12.796   +64 44 51.58  .09374 1.0035  82.2 21.2 .904  25
2022 08 19 19  16 28 38.365   +64 51 37.57  .09351 1.0034  82.1 21.2 .927  25
2022 08 19 20  16 28 03.473   +64 58 24.98  .09329 1.0033  82.0 21.2 .951  25
2022 08 19 21  16 27 28.112   +65 05 13.82  .09307 1.0031  81.9 21.2 .975  25
2022 08 19 22  16 26 52.274   +65 12 04.08  .09285 1.0030  81.8 21.2 1.00  25
2022 08 19 23  16 26 15.947   +65 18 55.75  .09263 1.0028  81.7 21.2 1.02  25
2022 08 20 00  16 25 39.125   +65 25 48.82  .09241 1.0027  81.6 21.2 1.05  26
2022 08 20 01  16 25 01.795   +65 32 43.30  .09219 1.0025  81.5 21.2 1.07  26
2022 08 20 02  16 24 23.949   +65 39 39.17  .09197 1.0024  81.4 21.2 1.10  25
2022 08 20 03  16 23 45.576   +65 46 36.42  .09175 1.0023  81.4 21.2 1.12  25
2022 08 20 04  16 23 06.666   +65 53 35.06  .09153 1.0021  81.3 21.2 1.15  25
2022 08 20 05  16 22 27.208   +66 00 35.07  .09132 1.0020  81.2 21.2 1.18  25
2022 08 20 06  16 21 47.192   +66 07 36.44  .09110 1.0018  81.1 21.2 1.20  25
2022 08 20 07  16 21 06.605   +66 14 39.17  .09088 1.0017  81.0 21.2 1.23  25
2022 08 20 08  16 20 25.436   +66 21 43.25  .09067 1.0016  80.9 21.2 1.26  25
2022 08 20 09  16 19 43.674   +66 28 48.65  .09045 1.0014  80.8 21.2 1.29  25
2022 08 20 10  16 19 01.307   +66 35 55.39  .09024 1.0013  80.7 21.2 1.32  25